CAPE
6 5 0 0 0 0 0 0 0 0 0 0 0 0 5 11 16 10 26 53 104 69 95 26 114 155 159 165 100 60 73 12 7
38 3 0 0 0 0 0 0 0 0 0 0 0 0 1 9 11 14 2 11 77 89 73 20 3 5 27 103 188 197 194 197 190
5 0 0 0 0 0 0 0 0 0 0 0 0 0 0 2 2 0 0 0 2 0 1 4 3 3 2 7 27 40 58 82 103
28 1 0 0 0 0 0 0 0 0 0 0 0 0 0 0 0 0 0 0 1 1 1 3 3 2 2 2 2 2 2 2 2
0 0 13 0 0 0 0 0 0 0 0 0 0 0 0 0 0 0 0 0 1 1 0 1 1 1 1 0 0 1 2 3 2
0 0 0 0 12 19 30 0 0 0 0 0 0 0 0 0 0 0 0 0 0 1 0 0 0 0 0 0 0 0 0 0 0
0 0 0 0 9 47 60 0 0 0 0 0 0 0 0 0 0 0 0 0 0 0 0 0 0 0 0 0 0 0 0 0 0
0 0 0 0 0 35 49 0 0 0 0 0 0 0 0 0 0 0 0 0 0 0 0 0 0 0 0 0 0 0 0 0 0
0 0 0 0 2 8 4 0 0 0 0 0 0 0 0 0 0 0 0 0 0 1 0 0 0 0 0 0 0 0 0 0 0
0 0 0 0 0 3 7 1 0 0 0 0 0 0 0 0 0 0 0 0 0 0 0 0 0 0 0 0 0 0 0 0 0
0 0 0 0 1 3 5 11 7 0 0 0 0 0 0 0 0 0 0 0 0 0 0 0 0 0 0 0 0 0 0 0 0
0 0 0 0 0 2 0 3 12 1 0 0 0 0 0 0 0 0 0 0 0 0 0 0 0 0 0 0 0 0 0 0 0
0 0 0 0 0 0 0 0 0 0 0 0 0 0 0 0 0 0 0 0 0 0 0 0 0 0 0 0 0 0 0 0 0
53 15 0 0 0 0 0 0 0 0 0 0 0 0 0 0 0 0 0 0 0 0 0 0 0 0 0 0 0 0 0 0 0
94 53 34 16 0 6 0 0 0 0 0 0 0 0 0 0 0 0 0 0 0 0 0 0 0 0 0 0 0 0 0 0 0
40 29 22 22 27 31 30 15 0 0 0 0 0 0 0 0 0 0 0 0 0 0 0 0 0 0 0 0 0 0 0 0 0
318 67 42 20 12 16 31 32 29 0 0 0 0 0 0 0 0 0 0 0 0 0 0 0 0 0 0 0 0 0 0 0 0
91 247 178 88 57 31 17 27 38 47 0 0 0 0 0 0 0 0 0 0 0 0 0 0 0 0 0 0 0 0 0 0 0
224 155 171 135 101 162 184 82 83 76 51 0 0 0 0 0 0 0 0 0 0 0 0 0 0 0 0 0 0 0 0 0 0
316 354 261 135 69 141 309 318 235 156 199 15 0 0 0 0 0 0 0 0 0 0 0 0 0 0 0 0 0 0 0 0 0
CIN
-0 -0 -0 -0 -0 -0 -0 -0 -0 -0 -0 -0 -0 -0 -24 -24 -36 -21 -5 -66 -43 -56 -46 -88 -54 -42 -47 -44 -74 -104 -99 -136 -104
-69 -0 -0 -0 -0 -0 -0 -0 -0 -0 -0 -0 -0 -0 -18 -38 -31 -33 -16 -4 -52 -51 -58 -100 -1 -77 -126 -60 -40 -34 -36 -39 -50
-0 -0 -0 -0 -0 -0 -0 -0 -0 -0 -0 -0 -0 -0 -0 -28 -17 -0 -0 -0 -0 -0 -0 -0 -0 -0 -0 -15 -93 -126 -92 -70 -59
-178 -0 -0 -0 -0 -0 -0 -0 -0 -0 -0 -0 -0 -0 -0 -0 -0 -0 -0 -0 -0 -0 -0 -0 -0 -0 -0 -0 -0 -0 -1 -0 -0
-0 -0 -244 -0 -0 -0 -0 -0 -0 -0 -0 -0 -0 -0 -0 -0 -0 -0 -0 -0 -0 -0 -0 -0 -0 -0 -0 -0 -0 -0 -0 -0 -0
-0 -0 -0 -0 -297 -271 -255 -0 -0 -0 -0 -0 -0 -0 -0 -0 -0 -0 -0 -0 -0 -0 -0 -0 -0 -0 -0 -0 -0 -0 -0 -0 -0
-0 -0 -0 -0 -336 -259 -242 -0 -0 -0 -0 -0 -0 -0 -0 -0 -0 -0 -0 -0 -0 -0 -0 -0 -0 -0 -0 -0 -0 -0 -0 -0 -0
-0 -0 -0 -0 -0 -260 -245 -0 -0 -0 -0 -0 -0 -0 -0 -0 -0 -0 -0 -0 -0 -0 -0 -0 -0 -0 -0 -0 -0 -0 -0 -0 -0
-0 -0 -0 -0 -353 -336 -121 -0 -0 -0 -0 -0 -0 -0 -0 -0 -0 -0 -0 -0 -0 -0 -0 -0 -0 -0 -0 -0 -0 -0 -0 -0 -0
-0 -0 -0 -0 -0 -391 -339 -158 -0 -0 -0 -0 -0 -0 -0 -0 -0 -0 -0 -0 -0 -0 -0 -0 -0 -0 -0 -0 -0 -0 -0 -0 -0
-0 -0 -0 -0 -261 -352 -330 -277 -266 -0 -0 -0 -0 -0 -0 -0 -0 -0 -0 -0 -0 -0 -0 -0 -0 -0 -0 -0 -0 -0 -0 -0 -0
-0 -0 -0 -0 -0 -109 -9 -244 -266 -166 -0 -0 -0 -0 -0 -0 -0 -0 -0 -0 -0 -0 -0 -0 -0 -0 -0 -0 -0 -0 -0 -0 -0
-0 -0 -0 -0 -0 -0 -0 -0 -0 -0 -0 -0 -0 -0 -0 -0 -0 -0 -0 -0 -0 -0 -0 -0 -0 -0 -0 -0 -0 -0 -0 -0 -0
-114 -144 -0 -0 -0 -0 -0 -0 -0 -0 -0 -0 -0 -0 -0 -0 -0 -0 -0 -0 -0 -0 -0 -0 -0 -0 -0 -0 -0 -0 -0 -0 -0
-84 -111 -128 -103 -0 -94 -0 -0 -0 -0 -0 -0 -0 -0 -0 -0 -0 -0 -0 -0 -0 -0 -0 -0 -0 -0 -0 -0 -0 -0 -0 -0 -0
-84 -91 -96 -112 -87 -94 -78 -89 -0 -0 -0 -0 -0 -0 -0 -0 -0 -0 -0 -0 -0 -0 -0 -0 -0 -0 -0 -0 -0 -0 -0 -0 -0
-52 -71 -74 -83 -85 -84 -71 -56 -71 -0 -0 -0 -0 -0 -0 -0 -0 -0 -0 -0 -0 -0 -0 -0 -0 -0 -0 -0 -0 -0 -0 -0 -0
-81 -47 -49 -57 -62 -64 -67 -60 -43 -69 -0 -0 -0 -0 -0 -0 -0 -0 -0 -0 -0 -0 -0 -0 -0 -0 -0 -0 -0 -0 -0 -0 -0
-41 -50 -47 -32 -50 -33 -34 -44 -38 -38 -40 -0 -0 -0 -0 -0 -0 -0 -0 -0 -0 -0 -0 -0 -0 -0 -0 -0 -0 -0 -0 -0 -0
-18 -18 -23 -27 -43 -24 -16 -25 -28 -31 -22 -68 -4 -0 -0 -0 -0 -0 -0 -0 -0 -0 -0 -0 -0 -0 -0 -0 -0 -0 -0 -0 -0
Wind_Speed
21 20 19 19 19 19 19 19 19 19 18 18 18 18 19 20 20 19 20 22 20 20 21 21 23 21 23 24 19 20 19 19 19
20 20 19 18 18 18 18 18 18 18 18 17 17 18 19 18 19 19 19 20 20 20 20 20 20 19 20 22 21 21 22 21 20
18 18 18 18 17 18 18 17 17 17 17 16 16 18 19 17 18 18 17 18 18 18 18 18 18 19 19 19 18 18 19 19 19
16 16 16 16 16 16 16 16 16 16 15 15 15 17 18 16 17 17 17 17 18 18 18 18 18 18 18 18 17 17 17 17 17
14 14 14 14 14 14 14 14 14 14 14 14 14 15 17 15 15 15 16 16 16 17 17 17 17 17 17 17 17 17 17 17 17
12 12 12 12 12 12 12 13 13 13 13 13 12 13 15 13 13 14 14 15 15 16 16 16 16 16 16 17 17 16 16 17 17
9 9 9 9 9 10 10 10 11 11 12 11 11 12 16 11 12 12 13 13 13 14 14 14 14 15 15 15 15 16 16 16 16
7 7 7 7 7 8 8 9 9 9 10 9 9 11 14 9 10 11 12 12 12 12 12 12 13 13 13 14 14 14 15 15 15
4 5 5 5 5 5 6 7 7 7 7 7 7 9 10 8 8 8 10 10 10 10 11 11 11 11 12 12 13 13 13 14 14
2 4 4 4 5 5 5 6 7 6 7 5 8 7 9 9 7 7 7 9 9 9 8 9 9 9 10 10 11 11 12 12 13
3 4 5 5 5 6 7 7 7 6 8 10 11 9 10 10 6 6 7 7 8 7 7 7 7 7 8 8 9 10 10 11 12
5 6 6 6 6 6 7 8 9 9 9 11 12 13 12 11 9 7 7 7 7 6 6 6 6 6 6 6 7 8 9 10 11
8 8 9 8 8 9 9 12 11 12 12 13 13 13 13 13 11 8 8 8 8 8 6 6 5 5 5 5 5 7 8 9 10
9 10 10 11 12 12 13 14 15 15 15 15 15 16 17 16 15 12 11 9 9 9 8 8 7 6 5 4 6 7 7 9 10
12 12 13 13 14 14 15 16 17 18 17 19 19 20 20 19 19 18 15 13 12 11 10 10 10 8 7 6 6 8 8 10 11
16 16 16 16 17 17 17 18 18 19 18 21 25 26 24 22 21 20 19 17 15 15 14 13 12 13 11 10 9 8 9 11 12
24 22 20 20 20 20 20 20 22 23 19 23 26 29 30 27 24 22 21 21 20 19 18 17 16 16 15 14 13 12 13 14 14
23 24 24 23 22 22 23 23 24 27 26 24 25 29 32 30 27 25 24 23 22 22 21 20 18 17 17 16 17 15 16 17 17
22 22 21 23 24 25 25 24 26 26 29 28 28 30 29 32 36 31 28 27 27 24 24 23 22 20 19 18 16 16 17 19 20
20 20 22 22 23 23 23 25 25 27 29 30 31 32 33 33 36 42 36 30 29 27 24 24 24 23 22 20 17 16 17 18 20
Wind_Direction
56 61 59 61 60 55 50 47 48 47 45 44 39 28 18 29 33 36 35 31 49 42 40 30 32 32 25 29 46 31 31 36 36
59 58 59 58 56 54 52 52 50 46 42 38 32 27 20 31 40 43 38 32 34 33 27 23 22 21 21 23 29 30 35 39 40
58 58 59 61 59 58 55 53 51 45 40 36 32 30 25 38 42 38 35 32 28 23 21 18 19 18 17 19 20 19 22 26 27
59 59 61 61 59 55 54 52 47 42 39 39 38 28 21 53 43 40 37 34 29 25 23 21 19 17 17 18 18 19 21 21 20
60 63 66 64 61 59 55 51 46 42 40 42 43 35 27 48 44 42 37 32 28 26 24 23 21 21 21 22 21 21 22 23 22
68 69 68 67 65 62 59 55 48 43 39 42 47 36 23 47 42 39 38 33 30 27 26 24 24 23 23 24 25 25 24 25 24
69 68 65 63 59 56 55 49 43 38 36 37 38 27 10 49 40 33 33 30 29 29 26 26 26 27 28 27 29 29 26 25 25
53 58 51 46 50 44 43 34 30 34 31 35 34 13 3 46 33 30 28 28 28 29 28 29 30 31 31 30 30 29 30 28 25
49 36 29 31 33 22 22 14 16 20 21 23 21 7 10 24 22 26 22 24 28 30 30 30 31 32 33 34 33 31 32 29 25
12 3 0 352 342 338 339 343 347 346 349 3 354 352 348 354 5 10 12 15 19 23 29 29 29 28 31 33 31 32 30 30 25
321 330 326 324 320 316 319 316 320 324 330 327 330 335 335 338 344 348 350 356 1 8 15 20 22 25 27 28 25 25 26 28 28
300 313 310 301 304 297 302 304 302 296 309 315 314 317 320 323 323 323 328 331 337 344 351 359 5 11 16 18 16 11 10 13 15
301 297 302 299 296 301 297 304 300 297 299 303 304 306 310 311 310 306 306 309 316 319 321 326 333 338 346 353 358 356 351 354 357
291 294 293 297 295 289 293 297 299 297 298 297 298 299 299 300 302 295 291 288 295 302 302 302 308 310 313 324 327 332 337 337 338
281 287 291 293 292 291 288 288 291 296 292 295 295 296 296 294 293 293 288 284 282 287 289 292 294 293 294 299 305 311 319 323 325
291 288 289 289 287 287 289 290 284 286 291 298 298 299 297 292 289 289 287 283 279 279 281 284 285 288 283 290 291 299 306 313 311
306 297 290 288 287 289 286 285 291 290 285 291 300 298 297 293 288 287 284 281 282 279 276 278 279 281 282 284 285 289 297 304 303
297 296 300 292 287 285 286 285 283 288 288 282 290 299 294 300 294 282 282 280 278 279 277 275 274 275 277 278 281 285 292 297 299
300 303 298 298 295 291 288 287 286 286 287 287 280 288 299 296 297 296 288 283 280 279 278 276 276 275 275 274 274 280 286 292 294
301 300 302 304 305 300 294 293 289 286 286 284 285 280 285 291 293 292 294 290 284 282 278 277 277 278 276 273 272 277 286 289 289